TimeEEST,TemperatureF,Dew PointF,Humidity,Sea Level PressureIn,VisibilityMPH,Wind Direction,Wind SpeedMPH,Gust SpeedMPH,PrecipitationIn,Events,Conditions,WindDirDegrees,DateUTC
12:20 AM,78.8,37.4,23,29.86,-9999.0,NNW,27.6,-,N/A,,Clear,330,2013-09-04 21:20:00
12:50 AM,78.8,37.4,23,29.89,-9999.0,NNW,27.6,-,N/A,,Clear,330,2013-09-04 21:50:00
1:20 AM,77.0,39.2,26,29.89,-9999.0,NW,24.2,-,N/A,,Clear,320,2013-09-04 22:20:00
1:50 AM,77.0,37.4,24,29.89,-9999.0,NNW,24.2,38.0,N/A,,Clear,330,2013-09-04 22:50:00
2:20 AM,75.2,39.2,27,29.89,-9999.0,NNW,21.9,33.4,N/A,,Clear,330,2013-09-04 23:20:00
2:50 AM,75.2,39.2,27,29.89,-9999.0,NW,19.6,-,N/A,,Clear,320,2013-09-04 23:50:00
3:20 AM,73.4,39.2,29,29.92,-9999.0,NW,17.3,-,N/A,,Clear,310,2013-09-05 00:20:00
3:50 AM,73.4,39.2,29,29.89,-9999.0,NW,18.4,-,N/A,,Clear,310,2013-09-05 00:50:00
4:20 AM,73.4,37.4,27,29.89,-9999.0,NW,17.3,-,N/A,,Clear,320,2013-09-05 01:20:00
4:50 AM,71.6,35.6,27,29.89,-9999.0,NW,18.4,-,N/A,,Clear,310,2013-09-05 01:50:00
5:20 AM,71.6,33.8,25,29.89,-9999.0,NW,16.1,-,N/A,,Clear,310,2013-09-05 02:20:00
5:50 AM,71.6,33.8,25,29.89,-9999.0,NW,20.7,-,N/A,,Clear,320,2013-09-05 02:50:00
6:20 AM,71.6,32.0,23,29.89,-9999.0,NW,21.9,-,N/A,,Clear,320,2013-09-05 03:20:00
6:50 AM,71.6,32.0,23,29.89,-9999.0,NW,21.9,-,N/A,,Clear,320,2013-09-05 03:50:00
7:20 AM,73.4,33.8,23,29.89,-9999.0,NNW,16.1,-,N/A,,Clear,330,2013-09-05 04:20:00
7:50 AM,73.4,33.8,23,29.89,-9999.0,NNW,19.6,-,N/A,,Clear,330,2013-09-05 04:50:00
8:20 AM,75.2,33.8,22,29.92,-9999.0,NNW,15.0,-,N/A,,Clear,340,2013-09-05 05:20:00
8:50 AM,75.2,32.0,21,29.89,-9999.0,NW,21.9,-,N/A,,Clear,320,2013-09-05 05:50:00
9:20 AM,77.0,32.0,19,29.89,-9999.0,NNW,20.7,-,N/A,,Clear,330,2013-09-05 06:20:00
9:50 AM,80.6,33.8,18,29.92,-9999.0,North,18.4,-,N/A,,Clear,350,2013-09-05 06:50:00
10:08 AM,80.6,33.8,18,29.92,-9999.0,North,18.4,-,N/A,,Clear,350,2013-09-05 07:08:00
10:20 AM,80.6,35.6,20,29.89,-9999.0,North,18.4,-,N/A,,Clear,360,2013-09-05 07:20:00
10:50 AM,80.6,33.8,18,29.89,-9999.0,North,21.9,-,N/A,,Clear,360,2013-09-05 07:50:00
11:20 AM,84.2,33.8,16,29.89,-9999.0,North,20.7,-,N/A,,Clear,350,2013-09-05 08:20:00
11:50 AM,86.0,33.8,15,29.89,-9999.0,North,16.1,-,N/A,,Clear,350,2013-09-05 08:50:00
12:20 PM,86.0,33.8,15,29.89,-9999.0,North,12.7,-,N/A,,Clear,360,2013-09-05 09:20:00
12:50 PM,86.0,33.8,15,29.89,-9999.0,North,13.8,-,N/A,,Clear,10,2013-09-05 09:50:00
1:20 PM,86.0,32.0,14,29.86,-9999.0,North,9.2,-,N/A,,Clear,10,2013-09-05 10:20:00
1:50 PM,87.8,32.0,14,29.86,-9999.0,North,8.1,-,N/A,,Clear,10,2013-09-05 10:50:00
2:20 PM,87.8,32.0,14,29.86,-9999.0,Variable,6.9,-,N/A,,Clear,0,2013-09-05 11:20:00
2:50 PM,87.8,32.0,14,29.83,-9999.0,NNE,8.1,-,N/A,,Clear,30,2013-09-05 11:50:00
3:00 PM,89,31,6,29.82,6,NNE,8.1,,,,,30,2013-09-05 12:00:00
3:20 PM,89.6,33.8,14,29.83,-9999.0,Variable,5.8,-,N/A,,Clear,0,2013-09-05 12:20:00
3:50 PM,89.6,33.8,14,29.80,-9999.0,NNW,6.9,-,N/A,,Clear,330,2013-09-05 12:50:00
4:20 PM,89.6,33.8,14,29.80,-9999.0,NNE,11.5,-,N/A,,Clear,20,2013-09-05 13:20:00
4:50 PM,89.6,35.6,15,29.80,-9999.0,North,5.8,-,N/A,,Clear,10,2013-09-05 13:50:00
5:20 PM,91.4,33.8,13,29.80,-9999.0,NW,9.2,-,N/A,,Clear,310,2013-09-05 14:20:00
5:50 PM,86.0,48.2,27,29.80,-9999.0,SSW,13.8,-,N/A,,Clear,200,2013-09-05 14:50:00
6:20 PM,86.0,46.4,25,29.80,-9999.0,SW,9.2,-,N/A,,Clear,220,2013-09-05 15:20:00
6:50 PM,84.2,42.8,23,29.80,-9999.0,SSW,6.9,-,N/A,,Clear,210,2013-09-05 15:50:00
7:20 PM,82.4,44.6,26,29.80,-9999.0,SSW,4.6,-,N/A,,Clear,210,2013-09-05 16:20:00
7:50 PM,80.6,51.8,37,29.83,-9999.0,South,3.5,-,N/A,,Clear,190,2013-09-05 16:50:00
8:20 PM,77.0,53.6,44,29.83,-9999.0,Calm,Calm,-,N/A,,Clear,0,2013-09-05 17:20:00
8:50 PM,78.8,41.0,26,29.83,-9999.0,NW,4.6,-,N/A,,Clear,310,2013-09-05 17:50:00
9:00 PM,79,44,18,29.82,6,NW,4.6,,,,,310,2013-09-05 18:00:00
9:20 PM,78.8,39.2,24,29.83,-9999.0,NNW,8.1,-,N/A,,Clear,340,2013-09-05 18:20:00
9:50 PM,78.8,39.2,24,29.83,-9999.0,NNW,10.4,-,N/A,,Clear,330,2013-09-05 18:50:00
10:20 PM,77.0,39.2,26,29.86,-9999.0,NW,6.9,-,N/A,,Clear,320,2013-09-05 19:20:00
10:50 PM,77.0,39.2,26,29.86,-9999.0,NW,6.9,-,N/A,,Clear,320,2013-09-05 19:50:00
11:20 PM,73.4,41.0,31,29.86,-9999.0,Variable,2.3,-,N/A,,Clear,0,2013-09-05 20:20:00
11:50 PM,71.6,41.0,33,29.86,-9999.0,Variable,2.3,-,N/A,,Clear,0,2013-09-05 20:50:00